Simultaneous Nadir Overpasses (SNOs) Predictions

Prediction of SNOs between AQUA and NOAA-19 Satellite Orbit:

Table of predicted SNOs for the next 14.0 days since TLE Epoch: 4/5/2025
Index Date (AQUA) Time (AQUA) Lat,Lon (AQUA) SZA (AQUA ) Date (NOAA-19) Time (NOAA-19) Lat,Lon (NOAA-19) SZA (NOAA-19 ) Distance(km) Time Diff (sec)
1 04/06/2025 15:39:45 75.41, -50.20 68.66 04/06/2025 15:38:35 75.35, -51.76 68.57 44.40 70
2 04/06/2025 16:29:09 -75.72, 116.56 111.06 04/06/2025 16:29:21 -75.71, 116.69 111.07 3.89 12
3 04/08/2025 18:36:53 75.68, -95.20 68.12 04/08/2025 18:36:46 75.67, -95.25 68.11 1.68 7
4 04/08/2025 19:26:22 -76.23, 70.75 111.37 04/08/2025 19:27:27 -76.25, 74.08 111.28 88.09 65
5 04/10/2025 20:44:35 -75.68, 52.92 112.65 04/10/2025 20:44:01 -75.68, 53.01 112.65 2.66 34
6 04/10/2025 21:33:55 75.73,-139.54 67.38 04/10/2025 21:35:02 75.75,-139.51 67.41 2.55 67
7 04/12/2025 22:52:16 75.64,-158.82 66.56 04/12/2025 22:51:25 75.65,-158.89 66.56 2.10 51
8 04/12/2025 23:41:35 -75.71, 8.66 113.40 04/12/2025 23:42:18 -75.71, 8.59 113.39 2.05 43
9 04/15/2025 00:59:55 -75.64, -10.68 114.20 04/15/2025 00:58:42 -75.57, -10.93 114.28 10.40 73
10 04/15/2025 01:49:15 75.69, 156.85 65.84 04/15/2025 01:49:41 75.71, 156.76 65.86 2.86 26
11 04/17/2025 03:56:53 -75.71, -55.08 114.88 04/17/2025 03:56:56 -75.72, -54.96 114.87 3.30 3



Historial Predications of SNOs between AQUA and NOAA-19
